Regional Weather Roundup
Issued by NWS Sioux Falls, SD

Home | Current Version | Previous Version | Text Only | Print | Product List | Glossary On
Versions: 1 2 3 4 5 6 7 8 9 10 11 12 13 14 15 16 17 18 19 20 21 22 23 24 25 26 27 28 29 30 31 32 33 34 35 36 37 38 39 40 41 42 43 44 45 46 47 48 49 50
000
ASUS43 KFSD 010502
RWRFSD

WEATHER ROUNDUP FOR SE SOUTH DAKOTA/SW MINNESOTA/NW IOWA
NATIONAL WEATHER SERVICE SIOUX FALLS SD
1100 PM CST SAT FEB 28 2015

NOTE: "FAIR" INDICATES FEW OR NO CLOUDS BELOW 12,000 FEET WITH NO
SIGNIFICANT WEATHER AND OR OBSTRUCTIONS TO VISIBILITY.


SDZ038>040-050-052>070-010600-
SOUTHEAST SOUTH DAKOTA

CITY           SKY/WX    TMP DP  RH WIND       PRES   REMARKS
CHAMBERLAIN    NOT AVBL
HURON          PTCLDY    11   7  84 NW12      30.25R WCI  -3
MADISON        FAIR      18  14  86 W6        30.20S WCI   9
MITCHELL       CLEAR     17  13  84 NW7       30.26R WCI   8
SIOUX FALLS    CLEAR     18  12  77 SW14      30.23R WCI   4
WINNER         FAIR      14  -2  49 NW7       30.24R WCI   4
YANKTON        CLEAR     21  12  68 SW10      30.27R WCI  10
$$

MNZ071-072-080-081-089-090-097-098-010600-
SOUTHWEST MINNESOTA

CITY           SKY/WX    TMP DP  RH WIND       PRES   REMARKS
FAIRMONT       CLEAR     12   9  85 S13       30.28F WCI  -3
JACKSON        CLEAR     14  10  85 S13       30.26F WCI   0
LUVERNE        CLEAR     14  10  85 S10       30.25R WCI   1
MARSHALL       PTCLDY    19  10  68 SW22      30.22R WCI   3
MONTEVIDEO     CLOUDY    18  12  79 SW12      30.22S WCI   5
PIPESTONE      CLEAR     16  10  79 SW15      30.20R WCI   1
REDWOOD FALLS  CLOUDY    15  10  80 S9        30.25F WCI   3
WINDOM         CLEAR     16  10  79 S9        30.25S WCI   4
WORTHINGTON    CLEAR     25   9  50 S14       30.25S WCI  13
$$

IAZ001>003-012>014-020>022-031-032-NEZ013-014-SDZ071-010600-
NORTHWEST IOWA

CITY           SKY/WX    TMP DP  RH WIND       PRES   REMARKS
DENISON        CLOUDY    19  19 100 S9        30.31F WCI   9
ESTHERVILLE    CLEAR     12   9  87 S12       30.28F WCI  -2
LE MARS        CLEAR     16  14  93 S8        30.29F WCI   5
SIOUX CITY     CLEAR     14  11  87 SE6       30.31F WCI   5
SPENCER        CLEAR     12   8  84 S10       30.29S WCI  -1
$$

ABBREVIATIONS USED IN REMARKS
   TC - TEMPERATURE IN CELSIUS
  WCI - WIND CHILL INDEX
   HX - HEAT INDEX
  VSB - VISIBILITY



USA.gov is the U.S. government's official web portal to all federal, state and local government web resources and services.